Weather History for Henderson, KY

Change the Weather History Date:

Saturday, April 12, 2014

  Actual Average Record
Temperature  
Mean Temperature 64 °F -  
Max Temperature 78 °F 70 °F 87 °F (1941)
Min Temperature 51 °F 46 °F 26 °F (1939)
Growing Degree Days 14 (Base 50)    
Moisture  
Dew Point 52 °F    
Average Humidity 63    
Maximum Humidity 88    
Minimum Humidity 39    
Precipitation  
Precipitation 0.00 in - - ()
Sea Level Pressure  
Sea Level Pressure 29.98 in    
Wind  
Wind Speed 9 mph (South)    
Max Wind Speed 23 mph    
Max Gust Speed 32 mph    
Visibility 10 miles    
Events      
Averages and records for this station are not official NWS values.
T = Trace of Precipitation, MM = Missing Value Source: NWS Daily Summary

Daily Weather History Graph

Daily Weather History Graph

Search for Another Location

Airport:

Trip Planner

Search our weather history database for the weather conditions in past years. The results will help you decide how hot, cold, wet, or windy it might be!

Date:

Astronomy

Apr. 12, 2014 Rise Set
Actual Time 6:19 AM CDT 7:23 PM CDT
Civil Twilight 5:52 AM CDT 7:50 PM CDT
Nautical Twilight 5:20 AM CDT 8:22 PM CDT
Astronomical Twilight 4:47 AM CDT 8:56 PM CDT
Moon 5:04 PM CDT (4/12) 4:43 AM CDT (4/12)
Length of Visible Light 13h 57m
Length of Day
13h 03m
Waxing Gibbous, 93% of the Moon is Illuminated
Apr 12
Waxing Gibbous
Apr 15
Full
Apr 22
Last Quarter
Apr 29
New
May 6
First Quarter

Hourly Weather History & Observations

Time (CDT) Temp. Dew Point Humidity Pressure Visibility Wind Dir Wind Speed Gust Speed Precip Events Conditions
12:15 AM 53.6 °F 48.2 °F 82% 30.08 in 10.0 mi Calm Calm - N/A   Clear
12:35 AM 51.8 °F 46.4 °F 82% 30.07 in 10.0 mi Calm Calm - N/A   Clear
12:55 AM 51.8 °F 46.4 °F 82% 30.08 in 10.0 mi Calm Calm - N/A   Clear
1:15 AM 51.8 °F 46.4 °F 82% 30.08 in 10.0 mi South 6.9 mph - N/A   Clear
1:35 AM 55.4 °F 50.0 °F 82% 30.08 in 10.0 mi South 9.2 mph - N/A   Partly Cloudy
1:55 AM 55.4 °F 50.0 °F 82% 30.08 in 10.0 mi South 5.8 mph - N/A   Partly Cloudy
2:15 AM 55.4 °F 50.0 °F 82% 30.07 in 10.0 mi South 5.8 mph - N/A   Clear
2:35 AM 53.6 °F 48.2 °F 82% 30.07 in 10.0 mi South 5.8 mph - N/A   Clear
2:55 AM 55.4 °F 51.8 °F 88% 30.07 in 10.0 mi South 5.8 mph - N/A   Partly Cloudy
3:15 AM 55.4 °F 51.8 °F 88% 30.07 in 10.0 mi Calm Calm - N/A   Clear
3:35 AM 51.8 °F 48.2 °F 88% 30.07 in 10.0 mi Calm Calm - N/A   Clear
3:55 AM 53.6 °F 48.2 °F 82% 30.07 in 10.0 mi Calm Calm - N/A   Clear
4:15 AM 51.8 °F 48.2 °F 88% 30.07 in 10.0 mi SSE 4.6 mph - N/A   Clear
4:35 AM 53.6 °F 50.0 °F 88% 30.07 in 10.0 mi SSE 5.8 mph - N/A   Clear
4:55 AM 53.6 °F 50.0 °F 88% 30.07 in 10.0 mi SSE 5.8 mph - N/A   Clear
5:15 AM 53.6 °F 50.0 °F 88% 30.07 in 10.0 mi SSE 4.6 mph - N/A   Clear
5:35 AM 53.6 °F 50.0 °F 88% 30.07 in 10.0 mi SSE 8.1 mph - N/A   Clear
5:55 AM 53.6 °F 50.0 °F 88% 30.07 in 10.0 mi SE 8.1 mph - N/A   Clear
6:15 AM 55.4 °F 50.0 °F 82% 30.07 in 10.0 mi SE 6.9 mph - N/A   Clear
6:35 AM 55.4 °F 50.0 °F 82% 30.07 in 10.0 mi SE 8.1 mph - N/A   Clear
6:55 AM 55.4 °F 50.0 °F 82% 30.07 in 10.0 mi SE 8.1 mph - N/A   Clear
7:15 AM 55.4 °F 51.8 °F 88% 30.08 in 10.0 mi SSE 6.9 mph - N/A   Clear
7:35 AM 55.4 °F 51.8 °F 88% 30.08 in 10.0 mi SSE 6.9 mph - N/A   Clear
7:55 AM 57.2 °F 51.8 °F 82% 30.08 in 10.0 mi SSE 8.1 mph - N/A   Clear
8:15 AM 59.0 °F 53.6 °F 82% 30.08 in 10.0 mi SSE 8.1 mph - N/A   Clear
8:55 AM 62.6 °F 53.6 °F 72% 30.07 in 10.0 mi South 8.1 mph - N/A   Clear
9:15 AM 64.4 °F 53.6 °F 68% 30.07 in 10.0 mi SSE 11.5 mph - N/A   Clear
9:35 AM 66.2 °F 53.6 °F 64% 30.07 in 10.0 mi South 10.4 mph - N/A   Clear
9:55 AM 66.2 °F 55.4 °F 68% 30.07 in 10.0 mi South 11.5 mph - N/A   Clear
10:15 AM 69.8 °F 53.6 °F 56% 30.07 in 10.0 mi South 16.1 mph 19.6 mph N/A   Clear
10:35 AM 69.8 °F 55.4 °F 60% 30.06 in 10.0 mi South 17.3 mph - N/A   Clear
10:55 AM 71.6 °F 55.4 °F 57% 30.06 in 10.0 mi South 12.7 mph - N/A   Clear
11:15 AM 73.4 °F 55.4 °F 53% 30.05 in 10.0 mi South 16.1 mph 19.6 mph N/A   Clear
11:35 AM 73.4 °F 55.4 °F 53% 30.04 in 10.0 mi SW 18.4 mph 23.0 mph N/A   Clear
11:55 AM 73.4 °F 55.4 °F 53% 30.03 in 10.0 mi SSW 16.1 mph 24.2 mph N/A   Partly Cloudy
12:15 PM 75.2 °F 55.4 °F 50% 30.02 in 10.0 mi SSW 18.4 mph 27.6 mph N/A   Partly Cloudy
12:35 PM 73.4 °F 55.4 °F 53% 30.01 in 10.0 mi SSW 13.8 mph - N/A   Mostly Cloudy
12:55 PM 75.2 °F 55.4 °F 50% 30.00 in 10.0 mi SW 17.3 mph 23.0 mph N/A   Mostly Cloudy
1:15 PM 75.2 °F 55.4 °F 50% 29.99 in 10.0 mi SSW 17.3 mph 24.2 mph N/A   Mostly Cloudy
1:35 PM 77.0 °F 55.4 °F 47% 29.97 in 10.0 mi South 19.6 mph 29.9 mph N/A   Scattered Clouds
1:55 PM 77.0 °F 55.4 °F 47% 29.97 in 10.0 mi SSW 21.9 mph 32.2 mph N/A   Partly Cloudy
2:15 PM 77.0 °F 55.4 °F 47% 29.96 in 10.0 mi South 16.1 mph - N/A   Partly Cloudy
2:35 PM 78.8 °F 55.4 °F 44% 29.94 in 10.0 mi SSW 20.7 mph 25.3 mph N/A   Partly Cloudy
2:55 PM 78.8 °F 55.4 °F 44% 29.93 in 10.0 mi SSW 18.4 mph 25.3 mph N/A   Partly Cloudy
3:15 PM 78.8 °F 53.6 °F 42% 29.91 in 10.0 mi South 21.9 mph 29.9 mph N/A   Scattered Clouds
3:35 PM 78.8 °F 53.6 °F 42% 29.91 in 10.0 mi SSW 19.6 mph 27.6 mph N/A   Partly Cloudy
3:55 PM 78.8 °F 53.6 °F 42% 29.90 in 10.0 mi South 17.3 mph 25.3 mph N/A   Clear
4:15 PM 78.8 °F 53.6 °F 42% 29.89 in 10.0 mi SSW 23.0 mph 29.9 mph N/A   Clear
4:35 PM 78.8 °F 51.8 °F 39% 29.89 in 10.0 mi South 23.0 mph - N/A   Clear
4:55 PM 77.0 °F 51.8 °F 41% 29.89 in 10.0 mi SSW 18.4 mph 25.3 mph N/A   Clear
5:15 PM 77.0 °F 53.6 °F 44% 29.88 in 10.0 mi SSW 17.3 mph 21.9 mph N/A   Clear
5:35 PM 77.0 °F 53.6 °F 44% 29.88 in 10.0 mi South 16.1 mph - N/A   Clear
5:55 PM 75.2 °F 53.6 °F 47% 29.87 in 10.0 mi SSW 11.5 mph - N/A   Clear
6:15 PM 75.2 °F 53.6 °F 47% 29.87 in 10.0 mi South 13.8 mph - N/A   Clear
6:35 PM 73.4 °F 53.6 °F 50% 29.87 in 10.0 mi SSW 11.5 mph 17.3 mph N/A   Clear
6:55 PM 73.4 °F 53.6 °F 50% 29.87 in 10.0 mi South 10.4 mph - N/A   Clear
7:15 PM 73.4 °F 53.6 °F 50% 29.87 in 10.0 mi South 11.5 mph - N/A   Clear
7:35 PM 71.6 °F 51.8 °F 50% 29.87 in 10.0 mi South 11.5 mph - N/A   Clear
7:55 PM 71.6 °F 51.8 °F 50% 29.87 in 10.0 mi South 12.7 mph - N/A   Clear
8:15 PM 71.6 °F 51.8 °F 50% 29.87 in 10.0 mi South 12.7 mph - N/A   Clear
8:35 PM 71.6 °F 51.8 °F 50% 29.88 in 10.0 mi South 15.0 mph 19.6 mph N/A   Clear
8:55 PM 71.6 °F 51.8 °F 50% 29.88 in 10.0 mi South 11.5 mph - N/A   Clear
9:15 PM 69.8 °F 53.6 °F 56% 29.87 in 10.0 mi South 10.4 mph - N/A   Clear
9:35 PM 69.8 °F 51.8 °F 53% 29.87 in 10.0 mi South 11.5 mph - N/A   Clear
9:55 PM 69.8 °F 51.8 °F 53% 29.87 in 10.0 mi South 11.5 mph - N/A   Clear
10:15 PM 69.8 °F 51.8 °F 53% 29.86 in 10.0 mi South 19.6 mph 26.5 mph N/A   Clear
10:35 PM 69.8 °F 50.0 °F 49% 29.86 in 10.0 mi South 18.4 mph 25.3 mph N/A   Clear
10:55 PM 69.8 °F 48.2 °F 46% 29.86 in 10.0 mi South 19.6 mph 25.3 mph N/A   Clear
11:15 PM 69.8 °F 48.2 °F 46% 29.86 in 10.0 mi South 19.6 mph 26.5 mph N/A   Clear
11:35 PM 69.8 °F 50.0 °F 49% 29.86 in 10.0 mi South 15.0 mph 23.0 mph N/A   Clear
11:55 PM 68.0 °F 51.8 °F 56% 29.86 in 10.0 mi SSW 16.1 mph 21.9 mph N/A   Clear